| time (UTC) | temp F | wind direction | speed MPH | gust MPH | rain 1hr in | rain 24hr in | rain mn in | humidity % | barometer mb |
| 20260831191428 | 67 | 21 | 2.0 | 3.0 | 0.06 | 0.00 | 0.14 | 91 | 1016.3 |
| 20260831190925 | 67 | 200 | 6.0 | 7.0 | 0.06 | 0.00 | 0.14 | 91 | 1015.8 |
| 20260831190421 | 67 | 213 | 4.0 | 8.0 | 0.06 | 0.00 | 0.14 | 91 | 1015.8 |
| 20260831185918 | 68 | 197 | 4.0 | 10.0 | 0.06 | 0.00 | 0.14 | 91 | 1016.0 |
| 20260831185414 | 68 | 187 | 7.0 | 14.0 | 0.05 | 0.00 | 0.13 | 90 | 1015.6 |
| 20260831184910 | 68 | 167 | 7.0 | 21.0 | 0.05 | 0.00 | 0.13 | 88 | 1015.4 |
| 20260831184406 | 69 | 163 | 10.0 | 25.0 | 0.03 | 0.00 | 0.11 | 84 | 1015.0 |
| 20260831183902 | 70 | 183 | 11.0 | 25.0 | 0.01 | 0.00 | 0.09 | 81 | 1015.0 |
| 20260831183621 | 71 | 154 | 13.0 | 26.0 | 0.00 | 0.00 | 0.09 | 80 | 1014.7 |
| 20260831182854 | 71 | 129 | 9.0 | 21.0 | 0.00 | 0.00 | 0.09 | 80 | 1014.8 |
| 20260831182612 | 71 | 157 | 11.0 | 22.0 | 0.00 | 0.00 | 0.09 | 79 | 1014.7 |
| 20260831181846 | 72 | 121 | 4.0 | 34.0 | 0.00 | 0.00 | 0.08 | 78 | 1015.1 |
| 20260831181342 | 73 | 99 | 19.0 | 26.0 | 0.00 | 0.00 | 0.08 | 76 | 1014.4 |
| 20260831180838 | 72 | 118 | 13.0 | 19.0 | 0.00 | 0.00 | 0.08 | 76 | 1014.0 |
| 20260831180334 | 72 | 69 | 4.0 | 18.0 | 0.00 | 0.00 | 0.08 | 76 | 1014.0 |
| 20260831175830 | 72 | 93 | 4.0 | 21.0 | 0.00 | 0.00 | 0.08 | 75 | 1014.0 |
| 20260831175326 | 73 | 143 | 11.0 | 23.0 | 0.00 | 0.00 | 0.08 | 73 | 1014.3 |
| 20260831174822 | 73 | 155 | 8.0 | 21.0 | 0.00 | 0.00 | 0.08 | 73 | 1014.4 |
| 20260831174318 | 74 | 157 | 7.0 | 23.0 | 0.00 | 0.00 | 0.08 | 72 | 1014.0 |
| 20260831173814 | 74 | 152 | 17.0 | 22.0 | 0.00 | 0.00 | 0.08 | 73 | 1013.8 |
| 20260831173310 | 74 | 158 | 11.0 | 26.0 | 0.00 | 0.00 | 0.08 | 72 | 1013.8 |
| 20260831172806 | 74 | 163 | 7.0 | 25.0 | 0.00 | 0.00 | 0.08 | 71 | 1013.8 |
| 20260831172305 | 75 | 160 | 15.0 | 22.0 | 0.00 | 0.00 | 0.08 | 70 | 1013.8 |
| 20260831171758 | 76 | 158 | 11.0 | 25.0 | 0.00 | 0.00 | 0.08 | 66 | 1013.5 |
| 20260831171254 | 77 | 140 | 8.0 | 22.0 | 0.00 | 0.00 | 0.08 | 62 | 1013.2 |
| 20260831170750 | 77 | 157 | 24.0 | 24.0 | 0.00 | 0.00 | 0.08 | 61 | 1013.0 |
| 20260831170245 | 77 | 151 | 11.0 | 21.0 | 0.00 | 0.00 | 0.08 | 67 | 1012.8 |
| 20260831170005 | 77 | 162 | 15.0 | 19.0 | 0.00 | 0.00 | 0.08 | 70 | 1012.9 |
| 20260831165237 | 77 | 148 | 6.0 | 17.0 | 0.00 | 0.00 | 0.08 | 69 | 1012.8 |
| 20260831164733 | 77 | 171 | 5.0 | 14.0 | 0.00 | 0.00 | 0.08 | 68 | 1012.5 |
| 20260831164449 | 77 | 160 | 8.0 | 22.0 | 0.00 | 0.00 | 0.08 | 69 | 1012.7 |
| 20260831163725 | 78 | 156 | 18.0 | 28.0 | 0.00 | 0.00 | 0.08 | 67 | 1012.4 |
| 20260831163221 | 80 | 220 | 5.0 | 13.0 | 0.00 | 0.00 | 0.08 | 61 | 1012.1 |
| 20260831162938 | 80 | 225 | 10.0 | 16.0 | 0.00 | 0.00 | 0.08 | 61 | 1011.8 |
| 20260831162213 | 79 | 213 | 3.0 | 9.0 | 0.00 | 0.00 | 0.08 | 59 | 1011.9 |
| 20260831161709 | 79 | 267 | 2.0 | 9.0 | 0.00 | 0.00 | 0.08 | 61 | 1011.7 |
| 20260831161205 | 80 | 256 | 4.0 | 11.0 | 0.00 | 0.00 | 0.08 | 59 | 1011.5 |
| 20260831160702 | 80 | 333 | 12.0 | 13.0 | 0.00 | 0.00 | 0.08 | 52 | 1011.2 |
| 20260831160157 | 80 | 308 | 6.0 | 17.0 | 0.00 | 0.00 | 0.08 | 53 | 1011.2 |
| 20260831155653 | 80 | 301 | 2.0 | 17.0 | 0.00 | 0.00 | 0.08 | 53 | 1011.3 |
| 20260831155149 | 80 | 316 | 11.0 | 15.0 | 0.00 | 0.00 | 0.08 | 54 | 1011.2 |
| 20260831154645 | 79 | 306 | 8.0 | 14.0 | 0.00 | 0.00 | 0.08 | 54 | 1011.2 |
| 20260831154404 | 78 | 319 | 21.0 | 21.0 | 0.00 | 0.00 | 0.08 | 56 | 1011.3 |
| 20260831153637 | 78 | 311 | 7.0 | 16.0 | 0.00 | 0.00 | 0.08 | 56 | 1011.5 |
| 20260831153354 | 78 | 311 | 15.0 | 23.0 | 0.00 | 0.00 | 0.08 | 56 | 1011.3 |
| 20260831152629 | 78 | 356 | 9.0 | 21.0 | 0.00 | 0.00 | 0.08 | 57 | 1011.6 |
| 20260831152125 | 76 | 268 | 2.0 | 11.0 | 0.00 | 0.00 | 0.08 | 68 | 1011.8 |
| 20260831151621 | 76 | 1 | 8.0 | 17.0 | 0.00 | 0.00 | 0.08 | 65 | 1011.8 |
| 20260831151117 | 76 | 344 | 4.0 | 18.0 | 0.00 | 0.00 | 0.08 | 72 | 1011.8 |
| 20260831150613 | 75 | 23 | 4.0 | 22.0 | 0.00 | 0.00 | 0.08 | 76 | 1011.8 |
| 20260831150109 | 74 | 36 | 8.0 | 12.0 | 0.00 | 0.00 | 0.08 | 78 | 1011.4 |
| 20260831145605 | 74 | 10 | 6.0 | 13.0 | 0.00 | 0.00 | 0.08 | 78 | 1011.5 |
| 20260831145322 | 74 | 50 | 7.0 | 12.0 | 0.00 | 0.00 | 0.08 | 79 | 1011.7 |
| 20260831144557 | 74 | 29 | 3.0 | 11.0 | 0.00 | 0.00 | 0.08 | 81 | 1011.3 |
| 20260831144053 | 74 | 40 | 3.0 | 9.0 | 0.00 | 0.00 | 0.08 | 79 | 1011.3 |
| 20260831143550 | 74 | 53 | 1.0 | 7.0 | 0.00 | 0.00 | 0.08 | 77 | 1011.2 |
| 20260831143046 | 73 | 78 | 5.0 | 5.0 | 0.00 | 0.00 | 0.08 | 79 | 1011.0 |
| 20260831142542 | 73 | 89 | 4.0 | 8.0 | 0.00 | 0.00 | 0.08 | 80 | 1010.7 |
| 20260831142038 | 73 | 7 | 2.0 | 4.0 | 0.00 | 0.00 | 0.08 | 80 | 1010.9 |
| 20260831141534 | 73 | 43 | 2.0 | 4.0 | 0.00 | 0.00 | 0.08 | 81 | 1010.7 |
| 20260831141250 | 73 | 342 | 2.0 | 8.0 | 0.00 | 0.00 | 0.08 | 82 | 1011.0 |
| 20260831140241 | 72 | 12 | 3.0 | 6.0 | 0.00 | 0.00 | 0.08 | 85 | 1011.0 |
| 20260831135517 | 71 | 8 | 3.0 | 9.0 | 0.00 | 0.00 | 0.08 | 86 | 1011.2 |
| 20260831135013 | 72 | 303 | 3.0 | 8.0 | 0.00 | 0.00 | 0.08 | 86 | 1011.1 |
| 20260831134730 | 71 | 34 | 3.0 | 5.0 | 0.00 | 0.00 | 0.08 | 85 | 1011.1 |
| 20260831134005 | 71 | 36 | 5.0 | 7.0 | 0.00 | 0.00 | 0.08 | 86 | 1011.0 |
| 20260831133726 | 71 | 43 | 3.0 | 7.0 | 0.00 | 0.00 | 0.08 | 87 | 1011.2 |
| 20260831132957 | 71 | 19 | 4.0 | 10.0 | 0.01 | 0.00 | 0.08 | 87 | 1011.0 |
| 20260831132453 | 71 | 349 | 4.0 | 11.0 | 0.02 | 0.00 | 0.08 | 88 | 1011.0 |
| 20260831132209 | 71 | 319 | 5.0 | 10.0 | 0.04 | 0.00 | 0.08 | 87 | 1010.8 |
| 20260831131707 | 71 | 319 | 7.0 | 9.0 | 0.06 | 0.00 | 0.08 | 87 | 1011.3 |
| 20260831130941 | 71 | 287 | 2.0 | 5.0 | 0.06 | 0.00 | 0.08 | 86 | 1011.2 |
| 20260831130437 | 71 | 243 | 2.0 | 5.0 | 0.06 | 0.00 | 0.08 | 86 | 1011.2 |
| 20260831130156 | 70 | 221 | 1.0 | 5.0 | 0.06 | 0.00 | 0.08 | 87 | 1011.2 |
| 20260831125430 | 71 | 196 | 3.0 | 16.0 | 0.08 | 0.00 | 0.08 | 85 | 1011.2 |
| 20260831124925 | 70 | 158 | 9.0 | 13.0 | 0.08 | 0.00 | 0.08 | 86 | 1011.4 |
| 20260831124421 | 70 | 145 | 8.0 | 14.0 | 0.08 | 0.00 | 0.08 | 86 | 1011.5 |
| 20260831123917 | 70 | 151 | 7.0 | 15.0 | 0.08 | 0.00 | 0.08 | 85 | 1011.7 |
| 20260831123413 | 70 | 164 | 18.0 | 24.0 | 0.08 | 0.00 | 0.08 | 86 | 1011.1 |
| 20260831122909 | 70 | 159 | 18.0 | 27.0 | 0.07 | 0.00 | 0.07 | 86 | 1011.6 |
| 20260831122405 | 71 | 129 | 10.0 | 24.0 | 0.06 | 0.00 | 0.06 | 85 | 1011.6 |
| 20260831121901 | 71 | 126 | 15.0 | 17.0 | 0.04 | 0.00 | 0.04 | 84 | 1011.4 |
| 20260831121357 | 71 | 164 | 12.0 | 19.0 | 0.03 | 0.00 | 0.03 | 83 | 1011.5 |
| 20260831121114 | 71 | 122 | 8.0 | 19.0 | 0.03 | 0.00 | 0.03 | 84 | 1011.5 |
| 20260831120349 | 71 | 165 | 10.0 | 17.0 | 0.02 | 0.00 | 0.02 | 84 | 1011.6 |
| 20260831115845 | 72 | 111 | 5.0 | 16.0 | 0.02 | 0.00 | 0.02 | 82 | 1011.0 |
| 20260831115342 | 73 | 112 | 4.0 | 15.0 | 0.01 | 0.00 | 0.01 | 79 | 1010.9 |
| 20260831114838 | 74 | 142 | 6.0 | 15.0 | 0.00 | 0.00 | 0.00 | 75 | 1010.6 |
| 20260831114334 | 74 | 151 | 15.0 | 24.0 | 0.00 | 0.00 | 0.00 | 73 | 1010.5 |
| 20260831113830 | 74 | 134 | 11.0 | 30.0 | 0.00 | 0.00 | 0.00 | 72 | 1010.2 |
| 20260831113550 | 75 | 100 | 9.0 | 26.0 | 0.00 | 0.00 | 0.00 | 71 | 1010.1 |
| 20260831112822 | 76 | 72 | 6.0 | 28.0 | 0.00 | 0.00 | 0.00 | 68 | 1009.4 |
| 20260831112318 | 78 | 105 | 15.0 | 29.0 | 0.00 | 0.00 | 0.00 | 64 | 1009.2 |
| 20260831111814 | 83 | 75 | 18.0 | 24.0 | 0.00 | 0.00 | 0.00 | 50 | 1008.4 |
| 20260831111800 | 83 | 69 | 4.0 | 11.0 | 0.00 | 0.00 | 0.00 | 49 | 1008.0 |
| 20260831111029 | 83 | 39 | 3.0 | 6.0 | 0.00 | 0.00 | 0.00 | 48 | 1008.0 |
| 20260831110302 | 83 | 93 | 4.0 | 9.0 | 0.00 | 0.00 | 0.00 | 48 | 1008.0 |
| 20260831105758 | 83 | 79 | 5.0 | 6.0 | 0.00 | 0.00 | 0.00 | 49 | 1007.9 |
| 20260831105253 | 83 | 116 | 3.0 | 4.0 | 0.00 | 0.00 | 0.00 | 49 | 1008.0 |
| 20260831104749 | 83 | 120 | 2.0 | 6.0 | 0.00 | 0.00 | 0.00 | 49 | 1007.6 |
| 20260831104245 | 83 | 161 | 2.0 | 5.0 | 0.00 | 0.00 | 0.00 | 48 | 1007.2 |
| 20260831103741 | 83 | 337 | 2.0 | 7.0 | 0.00 | 0.00 | 0.00 | 48 | 1007.0 |
| 20260831103237 | 83 | 327 | 2.0 | 2.0 | 0.00 | 0.00 | 0.00 | 48 | 1007.2 |
| 20260831102957 | 83 | 328 | 0.0 | 3.0 | 0.00 | 0.00 | 0.00 | 48 | 1007.3 |
| 20260831102229 | 83 | 295 | 0.0 | 3.0 | 0.00 | 0.00 | 0.00 | 48 | 1007.4 |
| 20260831101725 | 82 | 275 | 2.0 | 4.0 | 0.00 | 0.00 | 0.00 | 50 | 1007.4 |
| 20260831101221 | 81 | 232 | 4.0 | 7.0 | 0.00 | 0.00 | 0.00 | 51 | 1007.6 |
| 20260831100717 | 81 | 227 | 2.0 | 6.0 | 0.00 | 0.00 | 0.00 | 53 | 1007.5 |
| 20260831100214 | 81 | 255 | 2.0 | 5.0 | 0.00 | 0.00 | 0.00 | 53 | 1007.3 |
| 20260831095710 | 81 | 279 | 1.0 | 4.0 | 0.00 | 0.00 | 0.00 | 53 | 1007.4 |
| 20260831095656 | 81 | 178 | 2.0 | 3.0 | 0.00 | 0.00 | 0.00 | 52 | 1007.2 |
| 20260831094701 | 81 | 195 | 2.0 | 2.0 | 0.00 | 0.00 | 0.00 | 53 | 1007.3 |
| 20260831094157 | 81 | 95 | 0.0 | 2.0 | 0.00 | 0.00 | 0.00 | 53 | 1007.4 |
| 20260831093653 | 82 | 204 | 4.0 | 4.0 | 0.00 | 0.00 | 0.00 | 51 | 1007.4 |
| 20260831093149 | 83 | 293 | 0.0 | 2.0 | 0.00 | 0.00 | 0.00 | 50 | 1007.1 |
| 20260831092645 | 82 | 67 | 4.0 | 4.0 | 0.00 | 0.00 | 0.00 | 51 | 1007.2 |
| 20260831092141 | 82 | 32 | 0.0 | 1.0 | 0.00 | 0.00 | 0.00 | 51 | 1007.1 |
| 20260831091637 | 82 | 322 | 0.0 | 0.0 | 0.00 | 0.00 | 0.00 | 51 | 1007.0 |
| 20260831091355 | 82 | 322 | 1.0 | 3.0 | 0.00 | 0.00 | 0.00 | 50 | 1007.4 |
| 20260831090629 | 82 | 326 | 1.0 | 2.0 | 0.00 | 0.00 | 0.00 | 50 | 1007.4 |
| 20260831090126 | 82 | 145 | 0.0 | 1.0 | 0.00 | 0.00 | 0.00 | 51 | 1007.1 |
| 20260831085622 | 82 | 309 | 0.0 | 2.0 | 0.00 | 0.00 | 0.00 | 50 | 1007.1 |
| 20260831085118 | 82 | 217 | 0.0 | 1.0 | 0.00 | 0.00 | 0.00 | 50 | 1007.4 |
| 20260831084614 | 83 | 322 | 0.0 | 1.0 | 0.00 | 0.00 | 0.00 | 49 | 1007.4 |
| 20260831084110 | 83 | 331 | 2.0 | 3.0 | 0.00 | 0.00 | 0.00 | 49 | 1007.3 |
| 20260831083606 | 83 | 331 | 3.0 | 5.0 | 0.00 | 0.00 | 0.00 | 49 | 1007.6 |
| 20260831083102 | 83 | 325 | 1.0 | 5.0 | 0.00 | 0.00 | 0.00 | 49 | 1007.5 |
| 20260831082558 | 83 | 334 | 2.0 | 3.0 | 0.00 | 0.00 | 0.00 | 50 | 1007.6 |
| 20260831082054 | 82 | 345 | 4.0 | 6.0 | 0.00 | 0.00 | 0.00 | 50 | 1007.8 |
| 20260831081812 | 82 | 350 | 1.0 | 4.0 | 0.00 | 0.00 | 0.00 | 50 | 1007.8 |
| 20260831081310 | 82 | 321 | 0.0 | 2.0 | 0.00 | 0.00 | 0.00 | 50 | 1007.9 |
| 20260831080542 | 82 | 315 | 0.0 | 0.0 | 0.00 | 0.00 | 0.00 | 50 | 1008.0 |
| 20260831080038 | 82 | 280 | 1.0 | 3.0 | 0.00 | 0.00 | 0.00 | 50 | 1007.7 |
| 20260831075534 | 84 | 268 | 2.0 | 3.0 | 0.00 | 0.00 | 0.00 | 49 | 1007.8 |
| 20260831075030 | 85 | 268 | 2.0 | 2.0 | 0.00 | 0.00 | 0.00 | 47 | 1007.7 |
| 20260831074749 | 85 | 335 | 2.0 | 4.0 | 0.00 | 0.00 | 0.00 | 46 | 1007.5 |
| 20260831074022 | 86 | 327 | 2.0 | 3.0 | 0.00 | 0.00 | 0.00 | 46 | 1007.5 |
| 20260831073517 | 86 | 331 | 0.0 | 2.0 | 0.00 | 0.00 | 0.00 | 45 | 1007.7 |
| 20260831073237 | 86 | 13 | 2.0 | 2.0 | 0.00 | 0.00 | 0.00 | 45 | 1007.8 |
| 20260831072006 | 86 | 230 | 0.0 | 1.0 | 0.00 | 0.00 | 0.00 | 45 | 1007.6 |
| 20260831071502 | 86 | 38 | 0.0 | 2.0 | 0.00 | 0.00 | 0.00 | 44 | 1007.6 |
| 20260831070958 | 86 | 13 | 1.0 | 3.0 | 0.00 | 0.00 | 0.00 | 44 | 1007.6 |
| 20260831070453 | 86 | 347 | 3.0 | 4.0 | 0.00 | 0.00 | 0.00 | 44 | 1007.7 |
| 20260831065950 | 87 | 44 | 0.0 | 1.0 | 0.00 | 0.00 | 0.00 | 44 | 1007.9 |
| 20260831065446 | 87 | 44 | 0.0 | 1.0 | 0.00 | 0.00 | 0.00 | 44 | 1007.7 |
| 20260831064941 | 87 | 37 | 0.0 | 3.0 | 0.00 | 0.00 | 0.00 | 44 | 1007.6 |
| 20260831064437 | 87 | 53 | 2.0 | 3.0 | 0.00 | 0.00 | 0.00 | 43 | 1007.9 |
| 20260831063938 | 87 | 67 | 1.0 | 3.0 | 0.00 | 0.00 | 0.00 | 43 | 1007.7 |
| 20260831063430 | 87 | 329 | 0.0 | 3.0 | 0.00 | 0.00 | 0.00 | 43 | 1007.9 |
| 20260831062925 | 87 | 51 | 1.0 | 4.0 | 0.00 | 0.00 | 0.00 | 43 | 1007.8 |
| 20260831062645 | 87 | 68 | 4.0 | 6.0 | 0.00 | 0.00 | 0.00 | 43 | 1008.1 |
| 20260831061917 | 87 | 58 | 4.0 | 7.0 | 0.00 | 0.00 | 0.00 | 43 | 1007.8 |
| 20260831061414 | 87 | 101 | 3.0 | 5.0 | 0.00 | 0.00 | 0.00 | 43 | 1007.8 |
| 20260831060909 | 87 | 80 | 3.0 | 5.0 | 0.00 | 0.00 | 0.00 | 43 | 1008.1 |
| 20260831060406 | 87 | 68 | 5.0 | 5.0 | 0.00 | 0.00 | 0.00 | 43 | 1008.3 |
| 20260831055901 | 87 | 118 | 3.0 | 5.0 | 0.00 | 0.00 | 0.00 | 43 | 1008.0 |
| 20260831055358 | 87 | 161 | 1.0 | 2.0 | 0.00 | 0.00 | 0.00 | 43 | 1008.0 |
| 20260831054854 | 87 | 164 | 0.0 | 1.0 | 0.00 | 0.00 | 0.00 | 43 | 1008.0 |
| 20260831054350 | 87 | 148 | 3.0 | 4.0 | 0.00 | 0.00 | 0.00 | 43 | 1008.0 |
| 20260831053846 | 87 | 105 | 1.0 | 5.0 | 0.00 | 0.00 | 0.00 | 43 | 1008.1 |
| 20260831053342 | 88 | 62 | 0.0 | 3.0 | 0.00 | 0.00 | 0.00 | 42 | 1008.1 |
| 20260831052838 | 88 | 92 | 2.0 | 4.0 | 0.00 | 0.00 | 0.00 | 42 | 1007.9 |
| 20260831052334 | 88 | 78 | 2.0 | 5.0 | 0.00 | 0.00 | 0.00 | 42 | 1008.1 |
| 20260831051830 | 88 | 94 | 2.0 | 6.0 | 0.00 | 0.00 | 0.00 | 42 | 1008.2 |
| 20260831051326 | 88 | 89 | 0.0 | 4.0 | 0.00 | 0.00 | 0.00 | 42 | 1007.9 |
| 20260831050822 | 88 | 69 | 0.0 | 6.0 | 0.00 | 0.00 | 0.00 | 42 | 1007.8 |
| 20260831050318 | 88 | 70 | 2.0 | 5.0 | 0.00 | 0.00 | 0.00 | 42 | 1007.7 |
| 20260831045814 | 88 | 127 | 2.0 | 4.0 | 0.00 | 0.00 | 0.00 | 41 | 1007.5 |
| 20260831045310 | 88 | 113 | 4.0 | 9.0 | 0.00 | 0.00 | 0.00 | 41 | 1007.6 |
| 20260831044805 | 88 | 142 | 2.0 | 7.0 | 0.00 | 0.00 | 0.00 | 41 | 1007.6 |
| 20260831044752 | 88 | 132 | 6.0 | 9.0 | 0.00 | 0.00 | 0.00 | 41 | 1007.7 |
| 20260831043758 | 89 | 105 | 3.0 | 7.0 | 0.00 | 0.00 | 0.00 | 41 | 1007.8 |
| 20260831043254 | 89 | 137 | 6.0 | 17.0 | 0.00 | 0.00 | 0.00 | 41 | 1007.8 |
| 20260831042749 | 89 | 151 | 2.0 | 15.0 | 0.00 | 0.00 | 0.00 | 41 | 1007.7 |
| 20260831042246 | 89 | 123 | 7.0 | 13.0 | 0.00 | 0.00 | 0.00 | 41 | 1007.7 |
| 20260831041742 | 89 | 183 | 6.0 | 15.0 | 0.00 | 0.00 | 0.00 | 40 | 1007.8 |
| 20260831041237 | 89 | 161 | 8.0 | 15.0 | 0.00 | 0.00 | 0.00 | 40 | 1007.5 |
| 20260831040733 | 89 | 146 | 7.0 | 12.0 | 0.00 | 0.00 | 0.00 | 40 | 1007.6 |
| 20260831040229 | 89 | 129 | 4.0 | 11.0 | 0.00 | 0.00 | 0.00 | 40 | 1007.5 |
| 20260831035725 | 89 | 139 | 6.0 | 14.0 | 0.00 | 0.00 | 0.00 | 40 | 1007.5 |
| 20260831035222 | 89 | 154 | 7.0 | 18.0 | 0.00 | 0.00 | 0.00 | 40 | 1007.4 |
| 20260831034717 | 89 | 160 | 11.0 | 20.0 | 0.00 | 0.00 | 0.00 | 40 | 1007.3 |
| 20260831034213 | 89 | 162 | 5.0 | 19.0 | 0.00 | 0.00 | 0.00 | 40 | 1007.3 |
| 20260831033709 | 89 | 157 | 10.0 | 23.0 | 0.00 | 0.00 | 0.00 | 39 | 1007.0 |
| 20260831032701 | 90 | 138 | 13.0 | 19.0 | 0.00 | 0.00 | 0.00 | 39 | 1007.1 |
| 20260831032158 | 90 | 123 | 9.0 | 21.0 | 0.00 | 0.00 | 0.00 | 38 | 1007.0 |
| 20260831031654 | 90 | 163 | 14.0 | 21.0 | 0.00 | 0.00 | 0.00 | 38 | 1006.8 |
| 20260831031150 | 91 | 151 | 9.0 | 17.0 | 0.00 | 0.00 | 0.00 | 38 | 1006.5 |
| 20260831031136 | 91 | 156 | 17.0 | 25.0 | 0.00 | 0.00 | 0.00 | 38 | 1006.6 |
| 20260831030142 | 92 | 162 | 14.0 | 25.0 | 0.00 | 0.00 | 0.00 | 37 | 1006.3 |
| 20260831025637 | 94 | 154 | 13.0 | 21.0 | 0.00 | 0.00 | 0.00 | 35 | 1006.0 |
| 20260831025356 | 94 | 163 | 8.0 | 14.0 | 0.00 | 0.00 | 0.00 | 34 | 1005.9 |
| 20260831024629 | 94 | 156 | 9.0 | 11.0 | 0.00 | 0.00 | 0.00 | 34 | 1005.6 |
| 20260831024126 | 94 | 172 | 10.0 | 12.0 | 0.00 | 0.00 | 0.00 | 33 | 1005.3 |
| 20260831023621 | 94 | 149 | 2.0 | 8.0 | 0.00 | 0.00 | 0.00 | 33 | 1005.4 |
| 20260831023117 | 94 | 131 | 7.0 | 8.0 | 0.00 | 0.00 | 0.00 | 33 | 1005.2 |
| 20260831022613 | 94 | 167 | 5.0 | 11.0 | 0.00 | 0.00 | 0.00 | 33 | 1005.2 |
| 20260831022602 | 94 | 152 | 4.0 | 9.0 | 0.00 | 0.00 | 0.00 | 33 | 1005.2 |
| 20260831021605 | 94 | 130 | 3.0 | 9.0 | 0.00 | 0.00 | 0.00 | 32 | 1005.1 |
| 20260831021101 | 95 | 172 | 4.0 | 12.0 | 0.00 | 0.00 | 0.00 | 32 | 1004.6 |
| 20260831020557 | 95 | 141 | 8.0 | 9.0 | 0.00 | 0.00 | 0.00 | 32 | 1005.0 |
| 20260831020053 | 95 | 149 | 4.0 | 11.0 | 0.00 | 0.00 | 0.00 | 32 | 1004.9 |
| 20260831015549 | 95 | 102 | 4.0 | 12.0 | 0.00 | 0.00 | 0.00 | 32 | 1004.8 |
| 20260831015046 | 95 | 139 | 4.0 | 9.0 | 0.00 | 0.00 | 0.00 | 32 | 1004.8 |
| 20260831014542 | 95 | 134 | 4.0 | 9.0 | 0.00 | 0.00 | 0.00 | 32 | 1004.8 |
| 20260831014037 | 95 | 175 | 3.0 | 8.0 | 0.00 | 0.00 | 0.00 | 32 | 1004.7 |
| 20260831013534 | 95 | 103 | 3.0 | 9.0 | 0.00 | 0.00 | 0.00 | 31 | 1004.6 |
| 20260831013029 | 95 | 140 | 4.0 | 8.0 | 0.00 | 0.00 | 0.00 | 31 | 1004.7 |
| 20260831012525 | 95 | 145 | 6.0 | 8.0 | 0.00 | 0.00 | 0.00 | 31 | 1004.4 |
| 20260831012021 | 96 | 169 | 5.0 | 9.0 | 0.00 | 0.00 | 0.00 | 31 | 1004.4 |
| 20260831011517 | 96 | 139 | 3.0 | 8.0 | 0.00 | 0.00 | 0.00 | 31 | 1004.5 |
| 20260831011013 | 96 | 147 | 4.0 | 14.0 | 0.00 | 0.00 | 0.00 | 31 | 1004.2 |
| 20260831010509 | 96 | 143 | 3.0 | 8.0 | 0.00 | 0.00 | 0.00 | 31 | 1004.4 |
| 20260831010005 | 96 | 143 | 8.0 | 10.0 | 0.00 | 0.00 | 0.00 | 31 | 1004.2 |
| 20260831005502 | 96 | 149 | 4.0 | 8.0 | 0.00 | 0.00 | 0.00 | 31 | 1004.4 |
| 20260831004958 | 97 | 125 | 10.0 | 14.0 | 0.00 | 0.00 | 0.00 | 31 | 1004.3 |
| 20260831004717 | 97 | 156 | 7.0 | 12.0 | 0.00 | 0.00 | 0.00 | 30 | 1004.2 |
| 20260831004210 | 97 | 135 | 3.0 | 6.0 | 0.00 | 0.00 | 0.00 | 30 | 1004.5 |
| 20260831003446 | 97 | 122 | 2.0 | 10.0 | 0.00 | 0.00 | 0.00 | 30 | 1004.2 |
| 20260831002942 | 98 | 131 | 4.0 | 10.0 | 0.00 | 0.00 | 0.00 | 29 | 1004.2 |
| 20260831002438 | 97 | 151 | 3.0 | 10.0 | 0.00 | 0.00 | 0.00 | 30 | 1004.3 |
| 20260831001934 | 98 | 84 | 7.0 | 9.0 | 0.00 | 0.00 | 0.00 | 29 | 1004.3 |
| 20260831001650 | 97 | 139 | 7.0 | 10.0 | 0.00 | 0.00 | 0.00 | 29 | 1004.4 |
| 20260831001417 | 97 | 124 | 2.0 | 7.0 | 0.00 | 0.00 | 0.00 | 29 | 1004.1 |
| 20260831000422 | 97 | 122 | 9.0 | 13.0 | 0.00 | 0.00 | 0.00 | 29 | 1004.1 |
| 20260831000138 | 97 | 170 | 6.0 | 14.0 | 0.00 | 0.00 | 0.00 | 30 | 1004.4 |
| 20260830235414 | 97 | 201 | 5.0 | 13.0 | 0.00 | 0.00 | 0.00 | 30 | 1004.2 |
| 20260830234910 | 98 | 195 | 9.0 | 10.0 | 0.00 | 0.00 | 0.00 | 30 | 1004.2 |
| 20260830234406 | 97 | 35 | 3.0 | 9.0 | 0.00 | 0.00 | 0.00 | 30 | 1004.1 |
| 20260830233902 | 97 | 144 | 6.0 | 15.0 | 0.00 | 0.00 | 0.00 | 30 | 1004.2 |
| 20260830233358 | 97 | 164 | 4.0 | 8.0 | 0.00 | 0.00 | 0.00 | 29 | 1004.3 |
| 20260830232854 | 97 | 57 | 2.0 | 10.0 | 0.00 | 0.00 | 0.00 | 29 | 1004.4 |
| 20260830232350 | 97 | 141 | 4.0 | 9.0 | 0.00 | 0.00 | 0.00 | 29 | 1004.3 |
| 20260830231846 | 98 | 107 | 6.0 | 12.0 | 0.00 | 0.00 | 0.00 | 29 | 1004.6 |
| 20260830231604 | 97 | 136 | 3.0 | 13.0 | 0.00 | 0.00 | 0.00 | 30 | 1004.6 |
| 20260830230839 | 98 | 166 | 13.0 | 14.0 | 0.00 | 0.00 | 0.00 | 29 | 1004.5 |
| 20260830230334 | 97 | 201 | 5.0 | 10.0 | 0.00 | 0.00 | 0.00 | 30 | 1004.4 |
| 20260830225830 | 97 | 211 | 2.0 | 5.0 | 0.00 | 0.00 | 0.00 | 30 | 1004.7 |
| 20260830225325 | 96 | 8 | 3.0 | 7.0 | 0.00 | 0.00 | 0.00 | 31 | 1004.8 |
| 20260830224821 | 96 | 73 | 3.0 | 9.0 | 0.00 | 0.00 | 0.00 | 30 | 1005.0 |
| 20260830224317 | 97 | 71 | 8.0 | 14.0 | 0.00 | 0.00 | 0.00 | 30 | 1005.2 |
| 20260830223813 | 97 | 84 | 7.0 | 16.0 | 0.00 | 0.00 | 0.00 | 31 | 1005.0 |
| 20260830223309 | 98 | 141 | 6.0 | 15.0 | 0.00 | 0.00 | 0.00 | 31 | 1005.2 |
| 20260830222805 | 98 | 180 | 2.0 | 8.0 | 0.00 | 0.00 | 0.00 | 30 | 1005.5 |
| 20260830222301 | 96 | 259 | 3.0 | 4.0 | 0.00 | 0.00 | 0.00 | 29 | 1005.5 |
| 20260830221757 | 96 | 128 | 3.0 | 10.0 | 0.00 | 0.00 | 0.00 | 30 | 1005.8 |
| 20260830221253 | 96 | 114 | 3.0 | 12.0 | 0.00 | 0.00 | 0.00 | 29 | 1005.8 |
| 20260830220749 | 98 | 98 | 7.0 | 14.0 | 0.00 | 0.00 | 0.00 | 28 | 1005.7 |
| 20260830220246 | 97 | 100 | 7.0 | 13.0 | 0.00 | 0.00 | 0.00 | 29 | 1005.8 |
| 20260830215742 | 97 | 156 | 3.0 | 12.0 | 0.00 | 0.00 | 0.00 | 28 | 1005.9 |
| 20260830215238 | 98 | 133 | 7.0 | 12.0 | 0.00 | 0.00 | 0.00 | 29 | 1006.0 |
| 20260830214734 | 96 | 67 | 4.0 | 8.0 | 0.00 | 0.00 | 0.00 | 29 | 1006.1 |
| 20260830214720 | 97 | 73 | 6.0 | 10.0 | 0.00 | 0.00 | 0.00 | 29 | 1006.1 |
| 20260830213726 | 96 | 91 | 5.0 | 14.0 | 0.00 | 0.00 | 0.00 | 29 | 1006.2 |
| 20260830213222 | 97 | 149 | 5.0 | 9.0 | 0.00 | 0.00 | 0.00 | 28 | 1006.2 |
| 20260830212718 | 96 | 181 | 3.0 | 8.0 | 0.00 | 0.00 | 0.00 | 29 | 1006.3 |
| 20260830212214 | 97 | 45 | 5.0 | 8.0 | 0.00 | 0.00 | 0.00 | 29 | 1006.4 |
| 20260830211710 | 95 | 281 | 2.0 | 8.0 | 0.00 | 0.00 | 0.00 | 30 | 1006.5 |
| 20260830211206 | 97 | 100 | 5.0 | 14.0 | 0.00 | 0.00 | 0.00 | 29 | 1006.8 |
| 20260830210702 | 95 | 38 | 2.0 | 5.0 | 0.00 | 0.00 | 0.00 | 30 | 1006.6 |
| 20260830210157 | 96 | 142 | 4.0 | 8.0 | 0.00 | 0.00 | 0.00 | 30 | 1006.9 |
| 20260830205653 | 94 | 78 | 2.0 | 4.0 | 0.00 | 0.00 | 0.00 | 31 | 1007.2 |
| 20260830205149 | 96 | 267 | 4.0 | 10.0 | 0.00 | 0.00 | 0.00 | 31 | 1007.1 |
| 20260830204908 | 95 | 238 | 7.0 | 8.0 | 0.00 | 0.00 | 0.00 | 32 | 1007.5 |
| 20260830204142 | 95 | 176 | 2.0 | 11.0 | 0.00 | 0.00 | 0.00 | 31 | 1007.6 |
| 20260830203638 | 95 | 133 | 3.0 | 7.0 | 0.00 | 0.00 | 0.00 | 30 | 1007.6 |
| 20260830203356 | 95 | 70 | 8.0 | 12.0 | 0.00 | 0.00 | 0.00 | 31 | 1007.6 |
| 20260830202125 | 95 | 74 | 13.0 | 15.0 | 0.00 | 0.00 | 0.00 | 31 | 1007.8 |
| 20260830201621 | 93 | 318 | 4.0 | 7.0 | 0.00 | 0.00 | 0.00 | 33 | 1007.9 |
| 20260830201117 | 92 | 317 | 3.0 | 9.0 | 0.00 | 0.00 | 0.00 | 33 | 1008.3 |
| 20260830200836 | 94 | 48 | 4.0 | 6.0 | 0.00 | 0.00 | 0.00 | 32 | 1008.3 |
| 20260830200110 | 94 | 101 | 7.0 | 9.0 | 0.00 | 0.00 | 0.00 | 32 | 1008.4 |
| 20260830195605 | 94 | 88 | 7.0 | 11.0 | 0.00 | 0.00 | 0.00 | 33 | 1008.5 |
| 20260830195101 | 93 | 200 | 4.0 | 10.0 | 0.00 | 0.00 | 0.00 | 33 | 1008.3 |
| 20260830194557 | 94 | 191 | 4.0 | 8.0 | 0.00 | 0.00 | 0.00 | 33 | 1008.4 |
| 20260830194053 | 94 | 55 | 3.0 | 12.0 | 0.00 | 0.00 | 0.00 | 33 | 1008.6 |
| 20260830193549 | 92 | 169 | 3.0 | 11.0 | 0.00 | 0.00 | 0.00 | 34 | 1008.5 |
| 20260830193045 | 93 | 116 | 5.0 | 13.0 | 0.00 | 0.00 | 0.00 | 34 | 1008.8 |
| 20260830192541 | 92 | 160 | 4.0 | 10.0 | 0.00 | 0.00 | 0.00 | 34 | 1008.9 |
| 20260830192037 | 92 | 156 | 5.0 | 13.0 | 0.00 | 0.00 | 0.00 | 34 | 1009.1 |
| 20260830191533 | 93 | 114 | 6.0 | 13.0 | 0.00 | 0.00 | 0.00 | 33 | 1008.9 |